Weather History for Montreal Mirabel, QC

Change the Weather History Date:

Sunday, February 16, 2014

  Actual Average Record
Temperature  
Mean Temperature 8 °F -  
Max Temperature 14 °F 22 °F 39 °F (2002)
Min Temperature 1 °F 5 °F -20 °F (2003)
Degree Days  
Heating Degree Days 58    
Moisture  
Dew Point -3 °F    
Average Humidity 61    
Maximum Humidity 85    
Minimum Humidity 40    
Precipitation  
Precipitation 0.00 in - - ()
Sea Level Pressure  
Sea Level Pressure 29.90 in    
Wind  
Wind Speed 7 mph ()    
Max Wind Speed 15 mph    
Max Gust Speed 28 mph    
Averages and records for this station are not official NWS values.
T = Trace of Precipitation, MM = Missing Value Source: Averaged Metar Reports

Daily Weather History Graph

Daily Weather History Graph

Search for Another Location

Airport:

Trip Planner

Search our weather history database for the weather conditions in past years. The results will help you decide how hot, cold, wet, or windy it might be!

Date:

Astronomy

Feb. 16, 2014 Rise Set
Actual Time 6:56 AM EST 5:24 PM EST
Civil Twilight 6:26 AM EST 5:54 PM EST
Nautical Twilight 5:51 AM EST 6:29 PM EST
Astronomical Twilight 5:17 AM EST 7:04 PM EST
Moon 7:27 PM EST (2/16) 7:18 AM EST (2/16)
Length of Visible Light 11h 28m
Length of Day
10h 27m
Full, 97% of the Moon is Illuminated
Feb 16
Full
Feb 22
Last Quarter
Mar 1
New
Mar 8
First Quarter
Mar 16
Full

Hourly Weather History & Observations

Time (EST) Temp. Windchill Dew Point Humidity Pressure Visibility Wind Dir Wind Speed Gust Speed Precip Events Conditions
12:00 AM 10.4 °F 2.2 °F 6.8 °F 85% 29.81 in 25.0 mi West 4.6 mph - N/A   Scattered Clouds
1:00 AM 10.4 °F 0.8 °F 5.0 °F 79% 29.81 in 25.0 mi West 5.8 mph - N/A   Scattered Clouds
2:00 AM 6.8 °F -4.8 °F 1.4 °F 79% 29.81 in 25.0 mi West 6.9 mph - N/A   Partly Cloudy
3:00 AM 6.8 °F -5.9 °F 1.4 °F 79% 29.80 in 25.0 mi West 8.1 mph - N/A   Partly Cloudy
4:00 AM 5.0 °F -4.1 °F -0.4 °F 78% 29.80 in 25.0 mi WSW 4.6 mph - N/A   Partly Cloudy
5:00 AM 5.0 °F -4.1 °F -2.2 °F 72% 29.81 in 25.0 mi WSW 4.6 mph - N/A   Partly Cloudy
6:00 AM 5.0 °F -6.9 °F -2.2 °F 72% 29.81 in 25.0 mi West 6.9 mph - N/A   Partly Cloudy
7:00 AM 3.2 °F -9.1 °F -4.0 °F 72% 29.83 in 45.0 mi West 6.9 mph - N/A   Partly Cloudy
8:00 AM 1.4 °F -11.3 °F -5.8 °F 72% 29.86 in 45.0 mi WSW 6.9 mph - N/A   Partly Cloudy
9:00 AM 5.0 °F -9.1 °F -5.8 °F 61% 29.87 in 45.0 mi WSW 9.2 mph - N/A   Partly Cloudy
10:00 AM 6.8 °F -6.9 °F -4.0 °F 61% 29.88 in 45.0 mi SW 9.2 mph 18.4 mph N/A   Partly Cloudy
11:00 AM 8.6 °F -6.3 °F -4.0 °F 57% 29.87 in 45.0 mi WSW 11.5 mph 21.9 mph N/A Snow Low Drifting Snow
12:00 PM 12.2 °F -2.5 °F -2.2 °F 53% 29.87 in 45.0 mi WSW 12.7 mph 21.9 mph N/A Snow Low Drifting Snow
1:00 PM 12.2 °F -3.1 °F -2.2 °F 53% 29.87 in 45.0 mi WSW 13.8 mph 23.0 mph N/A Snow Low Drifting Snow
2:00 PM 14.0 °F -1.4 °F -0.4 °F 53% 29.87 in 45.0 mi WSW 15.0 mph 25.3 mph N/A Snow Low Drifting Snow
3:00 PM 14.0 °F -1.4 °F -0.4 °F 53% 29.88 in 45.0 mi WSW 15.0 mph 27.6 mph N/A Snow Low Drifting Snow
4:00 PM 14.0 °F 1.2 °F -0.4 °F 53% 29.89 in 45.0 mi WSW 10.4 mph 23.0 mph N/A Snow Low Drifting Snow
5:00 PM 14.0 °F 2.9 °F -2.2 °F 49% 29.93 in 45.0 mi WSW 8.1 mph - N/A Snow Low Drifting Snow
6:00 PM 10.4 °F 2.2 °F -4.0 °F 52% 29.98 in 25.0 mi SW 4.6 mph - N/A   Partly Cloudy
7:00 PM 8.6 °F -1.3 °F -5.8 °F 52% 29.99 in 25.0 mi West 5.8 mph - N/A   Clear
8:00 PM 8.6 °F 0.1 °F -5.8 °F 52% 30.02 in 25.0 mi WSW 4.6 mph - N/A   Clear
9:00 PM 8.6 °F -1.3 °F -9.4 °F 44% 30.06 in 25.0 mi West 5.8 mph - N/A   Clear
10:00 PM 10.4 °F -0.4 °F -9.4 °F 41% 30.08 in 25.0 mi NW 6.9 mph - N/A   Clear
11:00 PM 8.6 °F 2.0 °F -11.2 °F 40% 30.10 in 25.0 mi WNW 3.5 mph - N/A   Clear